Location: Newark
(41.7772°N, 74.7403°W)
Time: 05:03:24
(UTC+00:00)

Vanguard 1 Rocket - Visible Passes

Search period start: 06 June 2020 00:00
Search period end: 16 June 2020 00:00
Orbit: 653 x 4224 km, 34.3° (Epoch: 05 June)

Date Brightness Start Highest point End Pass type
(mag) Time Alt. Az. Time Alt. Az. Time Alt. Az.
06 Jun 10.5 02:04:31 10° SSW 02:27:26 42° SSE 02:43:36 10° E visible
06 Jun 9.7 04:34:22 10° WSW 04:57:20 62° S 05:10:01 10° E visible
06 Jun 9.1 07:07:58 10° W 07:25:27 59° SSW 07:34:19 10° ESE visible
07 Jun 10.8 00:52:39 10° SSW 01:13:36 33° SE 01:30:34 10° E visible
07 Jun 10.1 03:19:29 10° SW 03:43:44 57° SSE 03:58:44 10° E visible
07 Jun 9.4 05:52:11 10° W 06:13:07 65° S 06:23:56 10° ESE visible
07 Jun 9.1 08:26:00 10° W 08:39:38 41° SSW 08:47:03 10° SE visible
08 Jun 10.4 02:05:41 10° SW 02:29:45 49° SSE 02:46:50 10° E visible
08 Jun 9.8 04:36:27 10° WSW 05:00:01 66° S 05:13:07 10° E visible
08 Jun 9.2 07:10:25 10° W 07:28:10 56° SSW 07:37:17 10° SE visible
09 Jun 10.7 00:53:17 10° SSW 01:15:43 39° SE 01:34:03 10° E visible
09 Jun 10.1 03:21:19 10° WSW 03:46:16 62° SSE 04:01:49 10° E visible
09 Jun 9.5 05:54:30 10° W 06:15:51 64° S 06:26:57 10° ESE visible
09 Jun 9.3 08:28:42 10° W 08:42:07 36° SW 08:49:41 10° SSE visible
10 Jun 10.4 02:07:12 10° SW 02:32:04 55° SSE 02:49:56 10° E visible
10 Jun 9.8 04:38:39 10° WSW 05:02:41 68° S 05:16:09 10° E visible
10 Jun 9.3 07:12:53 10° W 07:30:46 51° SSW 07:40:08 10° SE visible
11 Jun 10.7 00:54:23 10° SSW 01:17:48 46° SSE 01:37:16 10° E visible
11 Jun 10.1 03:23:20 10° WSW 03:48:48 66° S 04:04:50 10° E visible
11 Jun 9.5 05:56:53 10° W 06:18:30 62° SSW 06:29:56 10° ESE visible
11 Jun 9.5 08:31:29 10° W 08:44:27 31° SW 08:52:07 10° SSE visible
12 Jun 10.4 02:08:59 10° SW 02:34:24 60° SSE 02:52:57 10° E visible
12 Jun 9.8 04:40:57 10° W 05:05:19 68° S 05:19:09 10° ESE visible
12 Jun 9.5 07:15:23 10° W 07:33:13 46° SSW 07:42:52 10° SE visible
13 Jun 10.7 00:55:51 10° SW 01:19:52 52° SSE 01:40:20 10° E visible
13 Jun 10.1 03:25:31 10° WSW 03:51:19 69° S 04:07:50 10° E visible
13 Jun 9.6 05:59:17 10° W 06:21:03 59° SSW 06:32:49 10° SE visible
13 Jun 9.8 08:34:27 10° W 08:46:37 26° SW 08:54:15 10° S visible
14 Jun 10.4 02:11:00 10° WSW 02:36:45 65° SSE 02:55:54 10° E visible
14 Jun 9.9 04:43:19 10° W 05:07:54 67° S 05:22:07 10° ESE visible
14 Jun 9.6 07:17:56 10° W 07:35:32 41° SW 07:45:25 10° SSE visible
15 Jun 10.6 00:57:38 10° SW 01:21:59 57° SSE 01:43:17 10° E visible
15 Jun 10.2 03:27:50 10° WSW 03:53:50 70° S 04:10:47 10° E visible
15 Jun 9.7 06:01:42 10° W 06:23:30 55° SSW 06:35:35 10° SE visible
15 Jun 10.0 08:37:45 10° W 08:48:38 21° SW 08:55:59 10° S visible
